Regional Weather Roundup
Issued by NWS

Home | Current Version | Previous Version | Text Only | Print | Product List | Glossary Off
Versions: 1 2 3 4 5 6 7 8 9 10 11 12 13 14 15 16 17 18 19 20 21 22 23 24 25 26 27 28 29 30 31 32 33 34 35 36 37 38 39 40 41 42 43 44 45 46 47 48 49 50

000
ASUS43 KLMK 250702
RWRKY
KENTUCKY REGIONAL WEATHER ROUNDUP
NATIONAL WEATHER SERVICE LOUISVILLE KY
300 AM EDT FRI JUL 25 2014

NOTE "FAIR" INDICATES FEW OR NO CLOUDS BELOW 12,000 FEET
WITH NO SIGNIFICANT WEATHER AND/OR OBSTRUCTIONS TO VISIBILITY.

KYZ001>023-026-027-061>063-070>075-250800-
WESTERN AND SOUTH CENTRAL KENTUCKY

CITY           SKY/WX    TMP DP  RH WIND       PRES   REMARKS
PADUCAH        CLEAR     61  58  90 CALM      30.02F
HENDERSON      CLEAR     55  52  88 CALM      30.04R
OWENSBORO      CLEAR     63  55  75 CALM      30.05S
HOPKINSVILLE   CLEAR     61  55  81 N3        30.03F
BOWLING GREEN  PTCLDY    59  55  87 CALM      30.04F
GLASGOW        CLEAR     57  54  88 CALM      30.04F
$$

KYZ024-025-028>034-038-045-046-053-250800-
NORTH CENTRAL KENTUCKY

CITY           SKY/WX    TMP DP  RH WIND       PRES   REMARKS
LOUISVILLE/SDF PTCLDY    65  55  70 N3        30.04F
LOUISVILLE/LOU CLEAR     62  55  77 CALM      30.05F
FORT KNOX      CLEAR     56  55  93 NE2       30.04S
$$

KYZ035>037-039>044-047>052-055>060-089>105-250800-
NORTHEAST KENTUCKY

CITY           SKY/WX    TMP DP  RH WIND       PRES   REMARKS
LEXINGTON      CLEAR     60  54  80 N5        30.06S
COVINGTON      CLEAR     61  50  67 E6        30.06F
FRANKFORT      CLEAR     57  55  93 CALM      30.06S
$$

KYZ054-064>069-076>088-106>120-250800-
SOUTHEAST KENTUCKY

CITY           SKY/WX    TMP DP  RH WIND       PRES   REMARKS
JACKSON        FOG       60  58  92 CALM      30.06S VSB 1/2
LONDON         FOG       59  57  93 CALM      30.06S VSB 1/4
SOMERSET       FOG       61  61 100 CALM      30.07S VSB<1/4
MIDDLESBORO    CLOUDY    61  61  99 CALM      30.07S FOG
MONTICELLO     FOG       58  58 100 CALM      30.08R VSB 1/4
$$




USA.gov is the U.S. government's official web portal to all federal, state and local government web resources and services.